Regional Weather Roundup
Issued by NWS

Home | Current Version | Previous Version | Text Only | Print | Product List | Glossary Off
Versions: 1 2 3 4 5 6 7 8 9 10 11 12 13 14 15 16 17 18 19 20 21 22 23 24 25 26 27 28 29 30 31 32 33 34 35 36 37 38 39 40 41 42 43 44 45 46 47 48 49 50

000
ASUS43 KFSD 241810
RWRSD

WEATHER ROUNDUP FOR SOUTH DAKOTA
NATIONAL WEATHER SERVICE SIOUX FALLS SD
1200 PM CST SAT FEB 24 2018

NOTE: "FAIR" INDICATES FEW OR NO CLOUDS BELOW 12,000 FEET WITH NO
SIGNIFICANT WEATHER AND/OR OBSTRUCTIONS TO VISIBILITY.


SDZ001>005-009-010-012>017-241900-
NORTHWEST AND NORTH CENTRAL SOUTH DAKOTA

CITY           SKY/WX    TMP DP  RH WIND       PRES   REMARKS
BUFFALO          N/A     18   8  65 W14       29.64F WCI   4
FAITH            N/A     12   9  87 W6        29.74F WCI   3
MOBRIDGE       SNOW      19  15  84 CALM      29.78F VSB 1/4
$$

SDZ012>016-024>037-041>051-057-063-072>074-241900-
SOUTHWEST AND SOUTH CENTRAL SOUTH DAKOTA

CITY           SKY/WX    TMP DP  RH WIND       PRES   REMARKS
RAPID CTY ARPT SUNNY     26  13  57 N26       29.70F WCI  10
PIERRE         SNOW      15  13  91 S8        29.78S VSB 1/2 WCI   4
CUSTER         SUNNY     24   3  40 NW12      29.60S WCI  13
ELLSWORTH AFB  SUNNY     27  12  53 N24       29.69F WCI  12
PHILIP         CLOUDY    19  15  84 N10       29.74F WCI   7
PINE RIDGE     PTSUNNY   24  10  55 W14G22    29.73R WCI  12
SPEARFISH        N/A     25  10  54 NW16      29.71F WCI  12
WINNER         LGT SNOW  17  11  77 SE13      29.74F WCI   4
$$

SDZ004>011-016>023-039-040-241900-
NORTHEAST SOUTH DAKOTA

CITY           SKY/WX    TMP DP  RH WIND       PRES   REMARKS
ABERDEEN       SNOW      15  10  80 SE7       29.90F VSB 1/2 WCI   5
WATERTOWN      SNOW      17  15  92 E6        29.86F VSB 1/4 WCI   9
BROOKINGS      LGT SNOW  19  16  86 E8        29.83F VSB 3/4 WCI   9
SISSETON         N/A     17  13  84 SE10      29.93F WCI   5
$$

SDZ017-020-022-023-036>040-048>070-241900-
SOUTHEAST SOUTH DAKOTA

CITY           SKY/WX    TMP DP  RH WIND       PRES   REMARKS
SIOUX FALLS    LGT SNOW  20  16  84 E9        29.81F VSB 1   WCI   9
HURON          SNOW      16  14  92 E8        29.83F VSB 1/4 WCI   5
CHAMBERLAIN    LGT SNOW  16  14  90 E12       29.79F WCI   3
MITCHELL       LGT SNOW  18  15  88 SE6       29.83F FOG     WCI  10
YANKTON        FLURRIES  21  18  88 SE7       29.83F WCI  12
$$

ABBREVIATIONS USED IN REMARKS
   TC - TEMPERATURE IN CELSIUS
  WCI - WIND CHILL INDEX
   HX - HEAT INDEX
  VSB - VISIBILITY





USA.gov is the U.S. government's official web portal to all federal, state and local government web resources and services.